Jackson Hawkins Field, MS

3:53 AM CST on December 15, 2019 (GMT -0600)
Hawkins

Weather History for KHKS - November, 2019

Change the Weather History Date:

Saturday, November 16, 2019

  Actual Average (KJAN) Record (KJAN)
Temperature  
Mean Temperature 45 °F -  
Max Temperature 60 °F 66 °F 86 °F (1931)
Min Temperature 29 °F 42 °F 18 °F (1916)
Degree Days  
Heating Degree Days 20    
Month to date heating degree days 248  
Moisture  
Dew Point 30 °F    
Average Humidity 56    
Maximum Humidity 85    
Minimum Humidity 26    
Precipitation  
Precipitation 0.00 in - - ()
Month to date precipitation 0.69  
Year to date precipitation 53.76  
Sea Level Pressure  
Sea Level Pressure 30.16 in    
Wind  
Wind Speed 4 mph (NW)    
Max Wind Speed 10 mph    
Max Gust Speed 16 mph    
Visibility 9 miles    
Events      
Averages and records for this station are not official NWS values.
T = Trace of Precipitation, MM = Missing Value Source: NWS Daily Summary

Daily Weather History Graph

Daily Weather History Graph

Search for Another Location

Airport or City:

Astronomy

Nov. 16, 2019 Rise Set
Actual Time 6:30 AM CST 5:00 PM CST
Civil Twilight 6:04 AM CST 5:26 PM CST
Nautical Twilight 5:35 AM CST 5:55 PM CST
Astronomical Twilight 5:06 AM CST 6:24 PM CST
Moon 8:38 PM CST (11/16) 10:18 AM CST (11/16)
Length of Visible Light 11h 21m
Length of Day
10h 29m
Waning Gibbous, 82% of the Moon is Illuminated
Nov 16
Waning Gibbous
Nov 19
Last Quarter
Nov 26
New
Dec 4
First Quarter
Dec 11
Full

Hourly Weather History & Observations

Time (CST) Temp. Windchill Dew Point Humidity Pressure Visibility Wind Dir Wind Speed Gust Speed Precip Events Conditions
12:53 AM 34.0 °F 31.0 °F 28.9 °F 82% 30.22 in 10.0 mi NW 3.5 mph - N/A   Clear
1:53 AM 32.0 °F 26.4 °F 27.0 °F 82% 30.22 in 10.0 mi NW 5.8 mph - N/A   Clear
2:53 AM 32.0 °F 26.4 °F 28.0 °F 85% 30.22 in 9.0 mi NNW 5.8 mph - N/A   Clear
3:53 AM 30.9 °F 25.2 °F 27.0 °F 85% 30.22 in 8.0 mi NW 5.8 mph - N/A   Clear
4:53 AM 30.9 °F 27.5 °F 27.0 °F 85% 30.22 in 6.0 mi NW 3.5 mph - N/A   Clear
5:53 AM 30.9 °F - 26.1 °F 82% 30.21 in 7.0 mi Calm Calm - N/A   Clear
6:53 AM 30.0 °F 26.5 °F 26.1 °F 85% 30.22 in 4.0 mi NW 3.5 mph - N/A   Clear
7:53 AM 35.1 °F 29.3 °F 28.0 °F 76% 30.23 in 8.0 mi North 6.9 mph - N/A   Clear
8:53 AM 39.9 °F 37.8 °F 28.9 °F 65% 30.23 in 10.0 mi Variable 3.5 mph - N/A   Clear
9:53 AM 46.0 °F 43.1 °F 32.0 °F 58% 30.23 in 10.0 mi NNW 5.8 mph - N/A   Clear
10:53 AM 50.0 °F - 30.0 °F 46% 30.21 in 10.0 mi Variable 5.8 mph - N/A   Clear
11:53 AM 54.0 °F - 28.9 °F 38% 30.18 in 10.0 mi NW 6.9 mph - N/A   Clear
12:53 PM 57.0 °F - 27.0 °F 32% 30.14 in 10.0 mi NW 6.9 mph - N/A   Clear
1:53 PM 59.0 °F - 25.0 °F 27% 30.12 in 10.0 mi Variable 4.6 mph - N/A   Clear
2:53 PM 60.1 °F - 27.0 °F 28% 30.10 in 10.0 mi Variable 4.6 mph - N/A   Clear
3:53 PM 57.9 °F - 30.0 °F 35% 30.11 in 10.0 mi NW 6.9 mph - N/A   Clear
4:53 PM 52.0 °F - 33.1 °F 49% 30.10 in 10.0 mi NW 4.6 mph - N/A   Clear
5:53 PM 48.9 °F - 33.1 °F 54% 30.10 in 10.0 mi NNW 4.6 mph - N/A   Clear
6:53 PM 46.9 °F - 34.0 °F 61% 30.11 in 10.0 mi NW 3.5 mph - N/A   Clear
7:53 PM 45.0 °F 43.5 °F 34.0 °F 65% 30.11 in 10.0 mi NW 3.5 mph - N/A   Clear
8:53 PM 43.0 °F 41.3 °F 34.0 °F 71% 30.12 in 10.0 mi NW 3.5 mph - N/A   Clear
9:53 PM 41.0 °F 39.0 °F 33.1 °F 73% 30.11 in 10.0 mi NNW 3.5 mph - N/A   Clear
10:53 PM 39.0 °F - 33.1 °F 79% 30.12 in 10.0 mi Calm Calm - N/A   Clear
11:53 PM 37.9 °F - 33.1 °F 83% 30.10 in 10.0 mi Calm Calm - N/A   Clear